Home > Weather > Zabrze > Past weeks

Flag for Poland Past Weather in Zabrze, Poland — Yesterday and Last 2 Weeks

Now
68 °F

Sprinkles. Broken clouds.


Feels Like: 68 °F
Forecast: 60 / 78 °F
Wind: 6 mph from West

Location: Katowice Airport

Current Time: Jul 28, 2016 at 12:30:30 PM

Latest Report: Jul 28, 2016 at 12:00 PM


Visibility: N/A

Pressure: 30.04 "Hg

Humidity: 88%

Dew Point: 64 °F

Location of ZabrzeLocation

Past Weather in Zabrze — Graph

°F

Zabrze Temperature Yesterday

Maximum temperature yesterday: 82 °F (at 5:30 PM)
Minimum temperature yesterday: 61 °F (at 5:30 AM)
Average temperature yesterday: 71 °F

High & Low Weather Summary for the Past Weeks

 TemperatureHumidityPressure
High82 °F (Jul 27, 5:30 PM)100% (Jul 14, 4:00 AM)30.21 "Hg (Jul 14, 4:00 AM)
Low46 °F (Jul 21, 4:00 AM)36% (Jul 22, 6:30 PM)29.59 "Hg (Jul 14, 10:00 AM)
Average64 °F80%30.03 "Hg
* Reported Jul 13 11:00 AM — Jul 28 11:30 AM, Zabrze, Weather by CustomWeather, © 2016

Note: Actual official high and low records may vary slightly from our data, if they occured in-between our weather recording intervals... More about our weather records

Advertising

Zabrze Weather History for the Previous 24 Hours

Scroll right to see more
 ConditionsComfort  
Time TempWeatherWind HumidityBarometerVisibility
11:30 AM
Thu, Jul 28
68 °FSprinkles. Scattered clouds.6 mph88%30.01 "Hg6 mi
11:00 AM68 °FSprinkles. Scattered clouds.7 mph83%30.01 "HgN/A
10:30 AM68 °FPartly sunny.8 mph83%30.01 "HgN/A
10:00 AM68 °FPartly sunny.8 mph88%30.01 "HgN/A
9:30 AM68 °FPartly sunny.7 mph88%30.01 "HgN/A
9:00 AM68 °FPartly sunny.8 mph88%30.01 "HgN/A
8:30 AM68 °FPartly sunny.10 mph88%30.01 "HgN/A
8:00 AM66 °FBroken clouds.8 mph94%30.01 "HgN/A
7:30 AM66 °FBroken clouds.9 mph94%30.01 "HgN/A
7:00 AM66 °FFog.3 mph94%29.98 "Hg3 mi
6:30 AM64 °FFog.3 mph100%29.98 "Hg2 mi
6:00 AM64 °FFog.7 mph100%29.98 "Hg3 mi
5:30 AM66 °FPassing clouds.7 mph88%29.98 "Hg4 mi
5:00 AM66 °FClear.5 mph88%29.98 "Hg5 mi
4:30 AM66 °FPassing clouds.3 mph88%29.95 "Hg5 mi
4:00 AM66 °FPassing clouds.2 mph88%29.95 "HgN/A
3:30 AM68 °FPassing clouds.3 mph88%29.95 "HgN/A
3:00 AM68 °FOvercast.3 mph88%29.95 "HgN/A
2:30 AM68 °FClear.5 mph88%29.95 "Hg10 mi
2:00 AM66 °FClear.2 mph94%29.95 "Hg10 mi
1:30 AM66 °FClear.5 mph94%29.98 "Hg10 mi
1:00 AM66 °FClear.1 mph94%29.95 "Hg10 mi
12:30 AM66 °FPassing clouds.1 mph94%29.98 "HgN/A
12:00 AM66 °FPassing clouds.2 mph94%29.98 "HgN/A
11:30 PM
Wed, Jul 27
68 °FPassing clouds.3 mph88%29.95 "HgN/A
11:00 PM68 °FPassing clouds.7 mph88%29.95 "HgN/A
10:30 PM70 °FPassing clouds.3 mph78%29.95 "HgN/A
10:00 PM68 °FPassing clouds.3 mph83%29.95 "HgN/A
9:30 PM68 °FScattered clouds.5 mph83%29.98 "HgN/A
9:00 PM70 °FThundershowers. Partly sunny.6 mph78%29.98 "HgN/A
8:30 PM70 °FThundershowers. Partly sunny.8 mph83%29.95 "HgN/A
8:00 PM73 °FThundershowers. Scattered clouds.10 mph69%29.95 "HgN/A
7:30 PM75 °FScattered clouds.14 mph69%29.95 "HgN/A
7:00 PM79 °FThundershowers. Passing clouds.5 mph65%29.92 "HgN/A
6:30 PM81 °FPassing clouds.5 mph58%29.95 "HgN/A
6:00 PM81 °FPassing clouds.6 mph62%29.95 "HgN/A
5:30 PM82 °FPassing clouds.3 mph55%29.95 "HgN/A
5:00 PM81 °FPassing clouds.5 mph58%29.95 "HgN/A
4:30 PM81 °FPassing clouds.2 mph58%29.98 "HgN/A
4:00 PM81 °FScattered clouds.5 mph58%29.98 "HgN/A
3:30 PM81 °FSunny.3 mph62%29.98 "Hg10 mi
3:00 PM81 °FSunny.5 mph58%29.98 "Hg10 mi
2:30 PM79 °FPassing clouds.6 mph65%30.01 "HgN/A
2:00 PM77 °FPassing clouds.6 mph61%30.01 "HgN/A
1:30 PM75 °FPassing clouds.6 mph65%30.04 "HgN/A
1:00 PM73 °FPassing clouds.7 mph69%30.04 "HgN/A
12:30 PM73 °FPassing clouds.8 mph69%30.04 "HgN/A
12:00 PM73 °FPassing clouds.8 mph65%30.07 "HgN/A
Weather by CustomWeather, © 2016

See weather overviewHow to use our weather pages